BLX457 LICC-LTAI

Flight info

Callsign BLX457
Flight time 1h 55m
Altitude 40000
Route PIMOR DCT NISUV DCT RUTOM/N0487F410 DCT ATV DCT PAR DCT LORKO
Aircraft B789/H-SDE1E2E3FGHIJ2J3J4J5M1RWXY/LB1D1

Departure

Time 2026-05-04 14:24
Airport Catania-Fontanarossa Airport (LICC)

Arrival

Time 2026-05-04 16:20
Airport Antalya International Airport (LTAI)
Time Latitude Longitude Altitude Speed Heading
2026-05-04 13:49 37.46934 15.06521 37 ft 0 kts 19°
2026-05-04 14:00 37.46933 15.06521 37 ft 0 kts 19°
2026-05-04 14:14 37.46931 15.06520 37 ft 2 kts 19°
2026-05-04 14:14 37.46906 15.06508 36 ft 4 kts 21°
2026-05-04 14:15 37.46857 15.06494 34 ft 3 kts 353°
2026-05-04 14:15 37.46836 15.06537 37 ft 4 kts 264°
2026-05-04 14:16 37.46840 15.06593 37 ft 0 kts 264°
2026-05-04 14:20 37.46840 15.06592 37 ft 2 kts 264°
2026-05-04 14:20 37.46836 15.06541 37 ft 10 kts 264°
2026-05-04 14:20 37.46826 15.06421 37 ft 18 kts 264°
2026-05-04 14:21 37.46791 15.06031 37 ft 22 kts 263°
2026-05-04 14:21 37.46773 15.05839 37 ft 23 kts 264°
2026-05-04 14:21 37.46756 15.05647 37 ft 21 kts 264°
2026-05-04 14:21 37.46740 15.05456 37 ft 22 kts 264°
2026-05-04 14:22 37.46708 15.05308 37 ft 15 kts 235°
2026-05-04 14:22 37.46672 15.05261 38 ft 0 kts 221°
2026-05-04 14:23 37.46615 15.05210 40 ft 14 kts 197°
2026-05-04 14:23 37.46570 15.05240 41 ft 5 kts 112°
2026-05-04 14:23 37.46565 15.05277 40 ft 0 kts 84°
2026-05-04 14:24 37.46579 15.05437 40 ft 60 kts 84°
2026-05-04 14:24 37.46654 15.06356 44 ft 147 kts 84°
2026-05-04 14:24 37.46764 15.07743 868 ft 155 kts 86°
2026-05-04 14:24 37.46867 15.09270 1788 ft 201 kts 87°
2026-05-04 14:25 37.47118 15.11214 2483 ft 239 kts 78°
2026-05-04 14:25 37.47851 15.15675 4099 ft 269 kts 81°
2026-05-04 14:25 37.48152 15.18013 5172 ft 273 kts 80°
2026-05-04 14:26 37.48467 15.20372 6250 ft 274 kts 79°
2026-05-04 14:26 37.48797 15.22755 7231 ft 279 kts 79°
2026-05-04 14:26 37.49131 15.25176 8169 ft 283 kts 79°
2026-05-04 14:26 37.49468 15.27643 9123 ft 288 kts 79°
2026-05-04 14:27 37.49807 15.30142 10083 ft 292 kts 78°
2026-05-04 14:27 37.50168 15.32733 10579 ft 312 kts 78°
2026-05-04 14:27 37.50560 15.35537 10710 ft 340 kts 78°
2026-05-04 14:27 37.50980 15.38582 10779 ft 367 kts 79°
2026-05-04 14:28 37.51420 15.41801 11381 ft 375 kts 79°
2026-05-04 14:28 37.51866 15.45064 12147 ft 381 kts 78°
2026-05-04 14:28 37.52321 15.48373 12872 ft 386 kts 78°
2026-05-04 14:28 37.52753 15.51523 13558 ft 391 kts 78°
2026-05-04 14:29 37.53528 15.57207 14653 ft 400 kts 78°
2026-05-04 14:29 37.54474 15.64174 15939 ft 408 kts 78°
2026-05-04 14:30 37.54954 15.67721 16553 ft 412 kts 78°
2026-05-04 14:30 37.55437 15.71294 17173 ft 416 kts 78°
2026-05-04 14:30 37.56415 15.78566 18338 ft 425 kts 78°
2026-05-04 14:31 37.56909 15.82247 18839 ft 429 kts 78°
2026-05-04 14:31 37.58575 15.89452 19702 ft 431 kts 64°
2026-05-04 14:32 37.60969 15.96446 20633 ft 438 kts 63°
2026-05-04 14:32 37.62182 15.99983 21067 ft 441 kts 63°
2026-05-04 14:32 37.63393 16.03562 21511 ft 445 kts 63°
2026-05-04 14:32 37.64613 16.07165 21931 ft 448 kts 63°
2026-05-04 14:33 37.65847 16.10788 22336 ft 451 kts 63°
2026-05-04 14:33 37.67088 16.14436 22735 ft 454 kts 63°
2026-05-04 14:33 37.68331 16.18108 23123 ft 457 kts 62°
2026-05-04 14:33 37.69582 16.21811 23509 ft 460 kts 62°
2026-05-04 14:34 37.70841 16.25536 23846 ft 463 kts 62°
2026-05-04 14:34 37.72105 16.29280 24184 ft 464 kts 62°
2026-05-04 14:34 37.73372 16.33040 24500 ft 466 kts 62°
2026-05-04 14:34 37.74641 16.36810 24808 ft 468 kts 62°
2026-05-04 14:35 37.75917 16.40606 25100 ft 469 kts 62°
2026-05-04 14:35 37.77192 16.44402 25402 ft 471 kts 62°
2026-05-04 14:35 37.78475 16.48227 25685 ft 473 kts 62°
2026-05-04 14:35 37.79758 16.52059 25968 ft 475 kts 62°
2026-05-04 14:36 37.81044 16.55906 26238 ft 476 kts 62°
2026-05-04 14:36 37.82335 16.59770 26539 ft 478 kts 62°
2026-05-04 14:36 37.83630 16.63651 26817 ft 480 kts 62°
2026-05-04 14:36 37.84930 16.67554 27097 ft 482 kts 62°
2026-05-04 14:37 37.86231 16.71465 27385 ft 484 kts 62°
2026-05-04 14:37 37.87537 16.75396 27669 ft 485 kts 62°
2026-05-04 14:37 37.88848 16.79348 27945 ft 487 kts 62°
2026-05-04 14:37 37.90160 16.83309 28231 ft 489 kts 62°
2026-05-04 14:38 37.91477 16.87290 28512 ft 491 kts 62°
2026-05-04 14:38 37.92799 16.91290 28789 ft 493 kts 62°
2026-05-04 14:38 37.94125 16.95309 29079 ft 495 kts 62°
2026-05-04 14:38 37.95453 16.99341 29372 ft 497 kts 62°
2026-05-04 14:39 37.96783 17.03383 29658 ft 498 kts 62°
2026-05-04 14:39 37.98118 17.07446 29948 ft 500 kts 62°
2026-05-04 14:39 37.99457 17.11528 30218 ft 502 kts 62°
2026-05-04 14:40 38.02122 17.19667 30695 ft 505 kts 62°
2026-05-04 14:40 38.03468 17.23788 30932 ft 506 kts 61°
2026-05-04 14:40 38.04806 17.27925 31175 ft 509 kts 63°
2026-05-04 14:40 38.05990 17.32178 31343 ft 512 kts 64°
2026-05-04 14:41 38.07197 17.36433 31615 ft 513 kts 64°
2026-05-04 14:41 38.08408 17.40686 31965 ft 512 kts 64°
2026-05-04 14:41 38.10783 17.49193 32664 ft 510 kts 64°
2026-05-04 14:42 38.13159 17.57668 33401 ft 509 kts 64°
2026-05-04 14:42 38.14340 17.61896 33758 ft 508 kts 64°
2026-05-04 14:42 38.15518 17.66138 34117 ft 508 kts 64°
2026-05-04 14:43 38.16691 17.70356 34433 ft 507 kts 64°
2026-05-04 14:43 38.17867 17.74588 34732 ft 507 kts 64°
2026-05-04 14:43 38.19036 17.78801 35032 ft 506 kts 64°
2026-05-04 14:43 38.20203 17.83021 35339 ft 505 kts 64°
2026-05-04 14:44 38.21367 17.87235 35644 ft 505 kts 65°
2026-05-04 14:44 38.22530 17.91450 35941 ft 504 kts 65°
2026-05-04 14:44 38.23688 17.95651 36249 ft 504 kts 65°
2026-05-04 14:44 38.24845 17.99857 36546 ft 503 kts 65°
2026-05-04 14:45 38.25997 18.04055 36840 ft 502 kts 65°
2026-05-04 14:45 38.27146 18.08245 37125 ft 502 kts 65°
2026-05-04 14:45 38.28293 18.12436 37427 ft 501 kts 65°
2026-05-04 14:45 38.29435 18.16618 37715 ft 500 kts 65°
2026-05-04 14:46 38.30578 18.20806 38012 ft 500 kts 65°
2026-05-04 14:46 38.31716 18.24985 38268 ft 500 kts 65°
2026-05-04 14:46 38.32852 18.29162 38473 ft 500 kts 65°
2026-05-04 14:46 38.33990 18.33354 38691 ft 500 kts 65°
2026-05-04 14:47 38.35123 18.37534 38896 ft 500 kts 65°
2026-05-04 14:47 38.36254 18.41716 39086 ft 499 kts 65°
2026-05-04 14:47 38.37386 18.45902 39251 ft 500 kts 65°
2026-05-04 14:47 38.38516 18.50094 39413 ft 500 kts 65°
2026-05-04 14:48 38.39646 18.54289 39583 ft 500 kts 66°
2026-05-04 14:48 38.40772 18.58482 39742 ft 500 kts 66°
2026-05-04 14:48 38.41900 18.62683 39905 ft 501 kts 66°
2026-05-04 14:48 38.43026 18.66884 40063 ft 501 kts 66°
2026-05-04 14:49 38.45282 18.75321 40126 ft 505 kts 66°
2026-05-04 14:49 38.47531 18.83772 40119 ft 501 kts 66°
2026-05-04 14:50 38.49762 18.92168 40122 ft 499 kts 66°
2026-05-04 14:50 38.51342 19.00814 40146 ft 509 kts 84°
2026-05-04 14:51 38.51235 19.05366 40155 ft 515 kts 95°
2026-05-04 14:51 38.50747 19.09896 40139 ft 516 kts 94°
2026-05-04 14:51 38.49741 19.18963 40136 ft 516 kts 95°
2026-05-04 14:52 38.48727 19.28022 40138 ft 515 kts 94°
2026-05-04 14:52 38.48221 19.32558 40252 ft 515 kts 95°
2026-05-04 14:52 38.47725 19.37080 40438 ft 515 kts 94°
2026-05-04 14:53 38.47250 19.41607 40607 ft 515 kts 94°
2026-05-04 14:53 38.46734 19.46122 40768 ft 515 kts 95°
2026-05-04 14:53 38.46191 19.50643 40933 ft 515 kts 95°
2026-05-04 14:53 38.45667 19.55161 41116 ft 515 kts 95°
2026-05-04 14:54 38.44635 19.64246 41128 ft 517 kts 95°
2026-05-04 14:54 38.43570 19.73277 41127 ft 513 kts 95°
2026-05-04 14:55 38.42523 19.82274 41129 ft 513 kts 95°
2026-05-04 14:55 38.41464 19.91207 41125 ft 513 kts 95°
2026-05-04 14:56 38.40390 20.00260 41118 ft 513 kts 95°
2026-05-04 14:56 38.39319 20.09197 41238 ft 514 kts 95°
2026-05-04 14:57 38.38230 20.18237 41229 ft 516 kts 95°
2026-05-04 14:57 38.37136 20.27254 41231 ft 513 kts 95°
2026-05-04 14:58 38.36041 20.36235 41236 ft 513 kts 96°
2026-05-04 14:58 38.34937 20.45206 41236 ft 513 kts 96°
2026-05-04 14:59 38.33827 20.54183 41246 ft 513 kts 96°
2026-05-04 15:00 38.32150 20.67632 41242 ft 513 kts 96°
2026-05-04 15:00 38.31027 20.76557 41219 ft 506 kts 96°
2026-05-04 15:01 38.29331 20.89968 41224 ft 517 kts 96°
2026-05-04 15:01 38.28168 20.99069 41220 ft 524 kts 96°
2026-05-04 15:02 38.26984 21.08287 41227 ft 531 kts 96°
2026-05-04 15:02 38.25778 21.17608 41245 ft 537 kts 96°
2026-05-04 15:03 38.24554 21.27016 41239 ft 541 kts 96°
2026-05-04 15:03 38.23315 21.36465 41237 ft 542 kts 96°
2026-05-04 15:04 38.22070 21.45905 41243 ft 541 kts 96°
2026-05-04 15:04 38.20818 21.55341 41235 ft 541 kts 96°
2026-05-04 15:05 38.19559 21.64768 41236 ft 541 kts 96°
2026-05-04 15:05 38.18290 21.74210 41230 ft 542 kts 96°
2026-05-04 15:06 38.17012 21.83655 41227 ft 542 kts 96°
2026-05-04 15:07 38.15084 21.97803 41214 ft 541 kts 97°
2026-05-04 15:07 38.13791 22.07212 41210 ft 541 kts 96°
2026-05-04 15:08 38.12501 22.16554 41219 ft 541 kts 97°
2026-05-04 15:08 38.11190 22.25972 41198 ft 542 kts 97°
2026-05-04 15:09 38.09875 22.35384 41210 ft 542 kts 97°
2026-05-04 15:09 38.08548 22.44800 41212 ft 541 kts 97°
2026-05-04 15:10 38.06552 22.58882 41216 ft 540 kts 97°
2026-05-04 15:11 38.04538 22.72959 41215 ft 540 kts 97°
2026-05-04 15:11 38.03186 22.82338 41214 ft 540 kts 97°
2026-05-04 15:12 38.01830 22.91687 41225 ft 539 kts 97°
2026-05-04 15:12 38.00466 23.01043 41216 ft 540 kts 97°
2026-05-04 15:13 37.99103 23.10333 41227 ft 540 kts 97°
2026-05-04 15:13 37.97714 23.19749 41222 ft 541 kts 97°
2026-05-04 15:14 37.96331 23.29069 41220 ft 541 kts 97°
2026-05-04 15:14 37.94935 23.38423 41216 ft 540 kts 98°
2026-05-04 15:15 37.93531 23.47782 41216 ft 540 kts 98°
2026-05-04 15:15 37.92360 23.55545 41209 ft 540 kts 98°
2026-05-04 15:16 37.90236 23.69537 41234 ft 540 kts 98°
2026-05-04 15:17 37.88090 23.83553 41237 ft 540 kts 98°
2026-05-04 15:17 37.85926 23.97566 41241 ft 541 kts 98°
2026-05-04 15:18 37.84475 24.06900 41233 ft 540 kts 98°
2026-05-04 15:19 37.82288 24.20875 41235 ft 540 kts 98°
2026-05-04 15:19 37.80087 24.34827 41227 ft 540 kts 98°
2026-05-04 15:20 37.78607 24.44142 41225 ft 540 kts 98°
2026-05-04 15:20 37.77121 24.53445 41225 ft 540 kts 99°
2026-05-04 15:21 37.75628 24.62744 41218 ft 540 kts 99°
2026-05-04 15:22 37.73375 24.76688 41212 ft 540 kts 99°
2026-05-04 15:22 37.71104 24.90626 41217 ft 540 kts 99°
2026-05-04 15:23 37.69582 24.99915 41213 ft 540 kts 99°
2026-05-04 15:23 37.68060 25.09150 41212 ft 541 kts 99°
2026-05-04 15:24 37.64975 25.27722 41209 ft 540 kts 99°
2026-05-04 15:25 37.63422 25.37004 41205 ft 541 kts 99°
2026-05-04 15:26 37.61077 25.50923 41205 ft 541 kts 99°
2026-05-04 15:26 37.58718 25.64825 41198 ft 541 kts 100°
2026-05-04 15:27 37.56338 25.78746 41191 ft 541 kts 100°
2026-05-04 15:28 37.53942 25.92653 41185 ft 542 kts 100°
2026-05-04 15:29 37.51528 26.06565 41184 ft 542 kts 100°
2026-05-04 15:30 37.45834 26.38973 41169 ft 541 kts 101°
2026-05-04 15:31 37.43370 26.52824 41163 ft 540 kts 101°
2026-05-04 15:32 37.39239 26.75836 41156 ft 539 kts 101°
2026-05-04 15:34 37.35069 26.98789 41145 ft 541 kts 101°
2026-05-04 15:34 37.32535 27.12605 41140 ft 541 kts 101°
2026-05-04 15:35 37.29986 27.26407 41135 ft 541 kts 101°
2026-05-04 15:36 37.27420 27.40202 41130 ft 541 kts 101°
2026-05-04 15:36 37.25699 27.49405 41130 ft 542 kts 102°
2026-05-04 15:37 37.23970 27.58607 41127 ft 542 kts 102°
2026-05-04 15:37 37.22233 27.67807 41129 ft 541 kts 102°
2026-05-04 15:38 37.20494 27.76981 41129 ft 541 kts 102°
2026-05-04 15:38 37.18745 27.86160 41126 ft 540 kts 102°
2026-05-04 15:39 37.16991 27.95327 41117 ft 541 kts 102°
2026-05-04 15:40 37.14345 28.09081 41094 ft 542 kts 102°
2026-05-04 15:40 37.12568 28.18265 41086 ft 542 kts 102°
2026-05-04 15:41 37.10785 28.27436 41084 ft 541 kts 102°
2026-05-04 15:41 37.08999 28.36588 41083 ft 540 kts 103°
2026-05-04 15:42 37.07203 28.45748 41082 ft 542 kts 103°
2026-05-04 15:42 37.05400 28.54900 41079 ft 542 kts 103°
2026-05-04 15:43 37.03592 28.64040 41081 ft 541 kts 103°
2026-05-04 15:43 37.01773 28.73197 41091 ft 542 kts 103°
2026-05-04 15:44 36.99946 28.82358 41098 ft 543 kts 103°
2026-05-04 15:44 36.98110 28.91516 41089 ft 543 kts 103°
2026-05-04 15:44 36.97208 28.96001 41068 ft 530 kts 103°
2026-05-04 15:45 36.96318 29.00416 41070 ft 521 kts 103°
2026-05-04 15:45 36.94546 29.09196 41071 ft 518 kts 103°
2026-05-04 15:46 36.92776 29.17909 40828 ft 518 kts 103°
2026-05-04 15:46 36.91887 29.22282 40453 ft 521 kts 103°
2026-05-04 15:46 36.90993 29.26669 40165 ft 521 kts 103°
2026-05-04 15:46 36.90096 29.31054 39869 ft 521 kts 103°
2026-05-04 15:47 36.89199 29.35434 39535 ft 516 kts 103°
2026-05-04 15:47 36.88309 29.39767 38093 ft 518 kts 103°
2026-05-04 15:47 36.87414 29.44124 36598 ft 517 kts 103°
2026-05-04 15:47 36.86522 29.48452 35338 ft 511 kts 102°
2026-05-04 15:48 36.85658 29.52627 35147 ft 482 kts 102°
2026-05-04 15:48 36.84842 29.56559 35060 ft 455 kts 102°
2026-05-04 15:48 36.83488 29.64088 33598 ft 434 kts 89°
2026-05-04 15:49 36.83524 29.67791 32814 ft 421 kts 78°
2026-05-04 15:49 36.84123 29.71312 32017 ft 409 kts 67°
2026-05-04 15:49 36.85218 29.74531 31275 ft 398 kts 56°
2026-05-04 15:49 36.86736 29.77369 30532 ft 389 kts 46°
2026-05-04 15:50 36.88599 29.79756 29789 ft 380 kts 36°
2026-05-04 15:50 36.90724 29.81648 28957 ft 372 kts 26°
2026-05-04 15:50 36.93026 29.83035 28179 ft 364 kts 20°
2026-05-04 15:50 36.95340 29.84279 27437 ft 361 kts 20°
2026-05-04 15:51 36.97637 29.85508 26729 ft 357 kts 19°
2026-05-04 15:51 36.99914 29.86716 26067 ft 353 kts 19°
2026-05-04 15:51 37.02165 29.87911 25407 ft 350 kts 19°
2026-05-04 15:51 37.04390 29.89100 25001 ft 345 kts 19°
2026-05-04 15:52 37.06620 29.90289 24997 ft 350 kts 19°
2026-05-04 15:52 37.08807 29.91627 25000 ft 352 kts 31°
2026-05-04 15:52 37.10659 29.93670 25010 ft 360 kts 46°
2026-05-04 15:52 37.12009 29.96339 25011 ft 368 kts 63°
2026-05-04 15:53 37.12708 29.99452 25016 ft 377 kts 80°
2026-05-04 15:53 37.12690 30.02761 25011 ft 383 kts 91°
2026-05-04 15:53 37.12468 30.06085 24994 ft 383 kts 92°
2026-05-04 15:53 37.12180 30.09397 24992 ft 383 kts 93°
2026-05-04 15:54 37.11893 30.12692 24818 ft 378 kts 92°
2026-05-04 15:54 37.11643 30.15946 24618 ft 368 kts 92°
2026-05-04 15:54 37.11404 30.19068 24591 ft 353 kts 92°
2026-05-04 15:54 37.11161 30.22070 24543 ft 339 kts 92°
2026-05-04 15:55 37.10920 30.24997 24171 ft 338 kts 92°
2026-05-04 15:55 37.10681 30.27926 23782 ft 337 kts 92°
2026-05-04 15:55 37.10522 30.30845 23371 ft 332 kts 81°
2026-05-04 15:55 37.11083 30.33577 22925 ft 320 kts 59°
2026-05-04 15:56 37.12324 30.35806 22490 ft 308 kts 38°
2026-05-04 15:56 37.14023 30.37317 22079 ft 296 kts 19°
2026-05-04 15:56 37.15955 30.38024 21671 ft 286 kts
2026-05-04 15:56 37.17919 30.38302 21252 ft 284 kts
2026-05-04 15:57 37.19873 30.38562 20882 ft 281 kts
2026-05-04 15:57 37.21811 30.38814 20498 ft 279 kts
2026-05-04 15:57 37.23732 30.39070 20132 ft 277 kts
2026-05-04 15:57 37.25636 30.39328 19770 ft 274 kts
2026-05-04 15:58 37.27527 30.39582 19398 ft 272 kts
2026-05-04 15:58 37.29403 30.39834 19051 ft 270 kts
2026-05-04 15:58 37.31239 30.40080 18701 ft 268 kts
2026-05-04 15:58 37.33082 30.40328 18327 ft 266 kts
2026-05-04 15:59 37.34913 30.40573 17970 ft 263 kts
2026-05-04 15:59 37.36735 30.40818 17565 ft 262 kts
2026-05-04 15:59 37.38541 30.41061 17168 ft 260 kts
2026-05-04 15:59 37.40337 30.41303 16745 ft 259 kts
2026-05-04 16:00 37.42121 30.41561 16345 ft 257 kts
2026-05-04 16:00 37.43795 30.42417 15902 ft 264 kts 27°
2026-05-04 16:00 37.45167 30.43999 15465 ft 274 kts 48°
2026-05-04 16:00 37.46014 30.46168 15064 ft 283 kts 70°
2026-05-04 16:01 37.46159 30.48659 14698 ft 291 kts 94°
2026-05-04 16:01 37.45515 30.51084 14298 ft 296 kts 119°
2026-05-04 16:01 37.44156 30.53017 13925 ft 297 kts 144°
2026-05-04 16:01 37.42318 30.54129 13513 ft 292 kts 166°
2026-05-04 16:02 37.40378 30.54845 13072 ft 290 kts 166°
2026-05-04 16:02 37.39110 30.55301 13054 ft 283 kts 166°
2026-05-04 16:02 37.35283 30.56688 13054 ft 288 kts 166°
2026-05-04 16:03 37.33353 30.57397 13055 ft 290 kts 166°
2026-05-04 16:03 37.31429 30.58100 12845 ft 286 kts 166°
2026-05-04 16:03 37.29509 30.58799 12351 ft 287 kts 165°
2026-05-04 16:03 37.27596 30.59496 11961 ft 285 kts 165°
2026-05-04 16:04 37.25704 30.60186 11577 ft 282 kts 165°
2026-05-04 16:04 37.21946 30.61554 10791 ft 279 kts 165°
2026-05-04 16:04 37.20087 30.62230 10410 ft 277 kts 165°
2026-05-04 16:05 37.18244 30.62900 9962 ft 275 kts 165°
2026-05-04 16:05 37.16406 30.63569 9504 ft 274 kts 165°
2026-05-04 16:05 37.12768 30.64890 8659 ft 271 kts 165°
2026-05-04 16:06 37.10960 30.65546 8267 ft 270 kts 165°
2026-05-04 16:06 37.05573 30.67500 7057 ft 268 kts 165°
2026-05-04 16:07 37.03786 30.68147 6686 ft 266 kts 165°
2026-05-04 16:07 36.98380 30.68087 5394 ft 258 kts 186°
2026-05-04 16:08 36.96590 30.67960 5014 ft 256 kts 187°
2026-05-04 16:08 36.91309 30.67506 4996 ft 256 kts 187°
2026-05-04 16:09 36.87811 30.67218 4999 ft 256 kts 187°
2026-05-04 16:09 36.84213 30.66919 4996 ft 257 kts 187°
2026-05-04 16:10 36.80655 30.66624 5003 ft 256 kts 187°
2026-05-04 16:11 36.75321 30.66182 4995 ft 256 kts 187°
2026-05-04 16:11 36.73566 30.66036 4995 ft 256 kts 187°
2026-05-04 16:12 36.68239 30.65595 4990 ft 255 kts 187°
2026-05-04 16:12 36.63390 30.67144 4954 ft 249 kts 121°
2026-05-04 16:13 36.62472 30.71091 4947 ft 229 kts 72°
2026-05-04 16:13 36.64111 30.74069 4856 ft 201 kts 24°
2026-05-04 16:14 36.66906 30.75181 4113 ft 218 kts 12°
2026-05-04 16:14 36.69789 30.76417 3256 ft 217 kts
2026-05-04 16:15 36.73915 30.77068 2990 ft 175 kts
2026-05-04 16:16 36.76295 30.77387 2709 ft 170 kts
2026-05-04 16:16 36.79762 30.77855 2020 ft 159 kts
2026-05-04 16:17 36.81767 30.78133 1641 ft 144 kts
2026-05-04 16:18 36.84461 30.78509 1048 ft 127 kts
2026-05-04 16:18 36.85343 30.78625 831 ft 124 kts 359°
2026-05-04 16:19 36.87841 30.78968 360 ft 119 kts
2026-05-04 16:19 36.89125 30.79145 208 ft 51 kts
2026-05-04 16:20 36.90001 30.79266 197 ft 43 kts
2026-05-04 16:20 36.90455 30.79467 209 ft 6 kts 42°
2026-05-04 16:21 36.90456 30.79469 205 ft 0 kts 42°
2026-05-04 16:24 36.90464 30.79486 196 ft 4 kts 70°
2026-05-04 16:25 36.90358 30.79535 197 ft 19 kts 186°
2026-05-04 16:26 36.89620 30.79485 205 ft 10 kts 64°
2026-05-04 16:26 36.89612 30.80085 204 ft 29 kts 97°
2026-05-04 16:27 36.89595 30.80269 206 ft 0 kts 93°
2026-05-04 16:28 36.89594 30.80282 207 ft 0 kts 94°